Regional Weather Roundup
Issued by NWS

Home | Current Version | Previous Version | Text Only | Print | Product List | Glossary Off
Versions: 1 2 3 4 5 6 7 8 9 10 11 12 13 14 15 16 17 18 19 20 21 22 23 24 25 26 27 28 29 30 31 32 33 34 35 36 37 38 39 40 41 42 43 44 45 46 47 48 49 50

000
ASUS43 KIND 210700
RWRIN

WEATHER ROUNDUP FOR INDIANA
NATIONAL WEATHER SERVICE INDIANAPOLIS IN
300 AM EDT THU SEP 21 2017

NOTE: "FAIR" INDICATES FEW OR NO CLOUDS BELOW 12,000 FEET WITH NO
SIGNIFICANT WEATHER AND/OR OBSTRUCTIONS TO VISIBILITY.

* - STATION DOES NOT REPORT WEATHER SUCH AS PRECIPITATION OR FOG.

+ - STATION NOT QUALITY CONTROLLED BY THE NATIONAL WEATHER SERVICE.
    USE DATA WITH CAUTION...ESPECIALLY DEWPOINT AND RELATIVE
    HUMIDITY OBSERVATIONS.

INZ001>003-010>013-019-020-210800-
NORTHWEST INDIANA

CITY           SKY/WX    TMP DP  RH WIND       PRES   REMARKS
KNOX *+        CLOUDY    68  66  94 CALM      30.00S
MICHIGAN CITY+ CLOUDY    75  66  73 S6        29.99S
MONTICELLO +   CLOUDY    69  67  95 CALM      30.01R
RENSSELAER +   CLOUDY    70  63  78 SE5       29.99F

$$

LMZ046-743>745-210800-
SOUTHERN LAKE MICHIGAN

STATION/POSITION TIME  TEMP    WIND        PRES    WAVE
                       AIR SEA DIR/SP/G            HT
                 (UTC) (F)     (DEG/KT/KT) (MB)    (FT)
BURNS HARBOR     0640   75     190/ 11/ 14 1015.2R
MICHIGAN CITY    0630   78     160/ 15/ 17   N/A
5NW MICH CITY    0650   73 70  190/ 10/ 12   N/A     1

$$

INZ004-005-014>016-021>024-210800-
NORTH CENTRAL INDIANA

CITY           SKY/WX    TMP DP  RH WIND       PRES   REMARKS
GOSHEN         MOCLDY    71  66  84 S5        30.02R
SOUTH BEND     PTCLDY    71  69  93 S5        30.00S
WARSAW +       MOCLDY    72  70  94 CALM      30.03R

$$

INZ006>009-017-018-025>027-210800-
NORTHEAST INDIANA

CITY           SKY/WX    TMP DP  RH WIND       PRES   REMARKS
AUBURN +       CLOUDY    68  64  88 CALM      30.04S
FORT WAYNE     PTCLDY    68  66  93 CALM      30.04R
KENDALLVILLE + CLOUDY    69  68  96 S5        30.04S

$$

INZ028-029-035-036-043>045-051>053-210800-
WEST CENTRAL INDIANA

CITY           SKY/WX    TMP DP  RH WIND       PRES   REMARKS
GREENCASTLE +  CLEAR     68  68 100 CALM      30.04S
LAFAYETTE      CLOUDY    70  69  97 CALM      30.00R
TERRE HAUTE    CLOUDY    69  67  93 CALM      30.02R

$$

INZ030>032-037>040-046>048-054>057-064-065-210800-
CENTRAL INDIANA

CITY           SKY/WX    TMP DP  RH WIND       PRES   REMARKS
GREENWOOD *+   CLEAR     75  72  92 CALM      30.04R
INDIANAPOLIS   CLEAR     72  69  90 SW3       30.03R
-EAGLE CREEK   CLEAR     72  68  87 CALM      30.03R
KOKOMO +       CLEAR     69  68  96 S7        30.03S
MT COMFORT *+    N/A    N/A N/A N/A MISG        N/A
SHELBYVILLE    CLEAR     71  67  87 S6        30.03R

$$

INZ033-034-041-042-049-050-058-059-210800-
EAST CENTRAL INDIANA

CITY           SKY/WX    TMP DP  RH WIND       PRES   REMARKS
MUNCIE         CLEAR     73  68  84 S5        30.05R
RICHMOND +     CLEAR     64  64 100 S5        30.07F FOG

$$

INZ060-061-067>069-081>083-085>088-210800-
SOUTHWEST INDIANA

CITY           SKY/WX    TMP DP  RH WIND       PRES   REMARKS
EVANSVILLE     CLEAR     73  70  90 CALM      30.02R
HUNTINGBURG +    N/A    N/A N/A N/A MISG        N/A

$$

INZ062-063-066-070>080-084-089>092-210800-
SOUTH CENTRAL AND SOUTHEAST INDIANA

CITY           SKY/WX    TMP DP  RH WIND       PRES   REMARKS
BLOOMINGTON    PTCLDY    71  67  87 SE3       30.03S
MADISON *+     CLEAR     68  66  94 CALM      30.07S
SEYMOUR +      FOG       68  68 100 CALM      30.04R VSB 3/4

$$





USA.gov is the U.S. government's official web portal to all federal, state and local government web resources and services.